Regional Weather Roundup
Issued by NWS

Home | Current Version | Previous Version | Text Only | Print | Product List | Glossary On
Versions: 1 2 3 4 5 6 7 8 9 10 11 12 13 14 15 16 17 18 19 20 21 22 23 24 25 26 27 28 29 30 31 32 33 34 35 36 37 38 39 40 41 42 43 44 45 46 47 48 49 50
000
ASUS44 KFWD 020415
RWRTX
NORTH TEXAS HOURLY WEATHER ROUNDUP
NATIONAL WEATHER SERVICE FORT WORTH TX
1000 PM CST SUN MAR 01 2015

NOTE: "FAIR" INDICATES FEW OR NO CLOUDS BELOW 12,000 FEET WITH NO
SIGNIFICANT WEATHER AND/OR OBSTRUCTIONS TO VISIBILITY.

TXZ118-119-020500-
DALLAS/FORT WORTH METROPLEX

CITY           SKY/WX    TMP DP  RH WIND       PRES   REMARKS
DFW AIRPORT    CLOUDY    37  33  85 N12       30.38R WCI  29
DALLAS LOVE    LGT RAIN  38  34  85 N10       30.39R WCI  31
FTW MEACHAM    LGT RAIN  37  33  85 N10       30.38R WCI  30
DAL-EXECUTIVE  CLOUDY    36  35  96 N13       30.37R FOG     WCI  27
FTW-ALLIANCE   CLOUDY    35  33  92 N12       30.39R WCI  27
FTW-SPINKS     CLOUDY    37  34  92 N12       30.40R FOG     WCI  29
ARLINGTON      CLOUDY    38  33  82 N12       30.38R WCI  30
GRAND PRAIRIE  CLOUDY    37  37  97 N7        30.40R WCI  32
ADDISON        CLOUDY    37  37 100 N7        30.40R WCI  32
MESQUITE       CLOUDY    37  36  93 N8G16     30.39R WCI  31
LANCASTER      CLOUDY    37  34  87 N12       30.38R WCI  30
$$

TXZ091>094-102>105-117-120-121-131>134-020500-
NORTH CENTRAL TEXAS

CITY           SKY/WX    TMP DP  RH WIND       PRES   REMARKS
SHRMAN/DENISON CLOUDY    36  35  98 N13       30.41F WCI  27
GAINESVILLE    CLOUDY    34  32  93 N9        30.42S WCI  26
BOWIE          CLOUDY    33  32  94 N7        30.40R WCI  27
BRIDGEPORT     CLOUDY    35  35  99 N6        30.42R WCI  30
DECATUR        CLOUDY    34  33  96 N7        30.39R WCI  28
DENTON         CLOUDY    36  33  89 N9        30.40R WCI  29
MCKINNEY       CLOUDY    37  34  89 N12       30.39R WCI  29
GREENVILLE     CLOUDY    37  36  93 N9        30.39R WCI  31
TERRELL        CLOUDY    40  36  86 N9        30.38R WCI  34
WAXAHACHIE     DRIZZLE   37  37 100 N13       30.38R WCI  28
CLEBURNE       CLOUDY    36  36 100 N12G18    30.38R FOG     WCI  27
GRANBURY       DRIZZLE   37  35  92 NW6       30.41R WCI  32
$$

TXZ083>090-098>101-113>116-127>130-139>142-154-155-020500-
WESTERN NORTH TEXAS

CITY           SKY/WX    TMP DP  RH WIND       PRES   REMARKS
WICHITA FALLS  CLOUDY    33  29  85 N13       30.43R FOG     WCI  24
WF-KICKAPOO    CLOUDY    35  32  88 N8        30.44R WCI  29
VERNON         CLOUDY    35  28  75 NE5       30.45R WCI  31
ABILENE        CLOUDY    32  31  96 N9        30.37R FOG     WCI  24
ABILENE-DYESS  CLOUDY    32  30  93 CALM      30.37R
BRECKENRIDGE   LGT RAIN  34  34 100 N5        30.40R WCI  30
GRAHAM         CLOUDY    33  33 100 N7        30.39R FOG     WCI  27
MINERAL WELLS  LGT RAIN  34  32  92 N7        30.38R FOG     WCI  28
STEPHENVILLE   CLOUDY    34  33  94 N10       30.39R WCI  26
COMANCHE       CLOUDY    33  33 100 N10       30.36R FOG     WCI  25
BROWNWOOD      CLOUDY    34  32  93 N8        30.37R FOG     WCI  27
COLEMAN        CLOUDY    33  33 100 N8        30.35R FOG     WCI  26
BRADY          CLOUDY    34  32  93 N9        30.31R FOG     WCI  26
$$

TXZ143>147-156>162-174-175-020500-
CENTRAL TEXAS

CITY           SKY/WX    TMP DP  RH WIND       PRES   REMARKS
WACO           CLOUDY    37  36  96 N10       30.36R FOG     WCI  30
WACO-MCGREGOR    N/A     37  32  81 N7        30.38R WCI  32
HILLSBORO      CLOUDY    37  35  91 N12       30.36R FOG     WCI  30
CORSICANA      CLOUDY    39  37  92 N8        30.36R FOG     WCI  33
MEXIA          DRIZZLE   38  37  98 MISG      30.34R
HEARNE         CLOUDY    41  40  97 N8        30.35R WCI  36
CAMERON        CLOUDY    40  40  98 N10       30.33S FOG     WCI  34
TEMPLE         CLOUDY    37  34  87 N10       30.33S WCI  30
KILLEEN        LGT RAIN  36  36 100 N13       30.33R VSB 3/4 WCI  27
KILLEEN-SKYLRK CLOUDY    37  32  81 N8        30.32R WCI  31
FORT HOOD      CLOUDY    36  36  99 N12       30.33S FOG     WCI  28
GATESVILLE     CLOUDY    36  36 100 N7        30.37S FOG     WCI  30
HAMILTON       CLOUDY    35  35 100 N13       30.35R FOG     WCI  27
LAMPASAS       CLOUDY    35  34  96 N6        30.32S WCI  30
$$

TXZ095>097-106>112-122>126-135>138-148>153-164>167-020500-
EAST TEXAS

CITY           SKY/WX    TMP DP  RH WIND       PRES   REMARKS
PARIS          CLOUDY    37  34  87 N10       30.40R WCI  30
SULPHUR SPRNGS CLOUDY    40  39  99 N10       30.39R WCI  33
MOUNT PLEASANT CLOUDY    42  42 100 N3        30.38R
GILMER         CLOUDY    42  41  97 N5        30.35S FOG     WCI  39
MINEOLA        CLOUDY    41  41 100 N5        30.36R FOG     WCI  38
TYLER          CLOUDY    42  41  96 NE8       30.34R FOG     WCI  37
LONGVIEW       CLOUDY    44  41  89 CALM      30.34R FOG
MARSHALL       CLOUDY    43  41  93 N3        30.36R
ATHENS         DRIZZLE   39  39 100 N5        30.34R WCI  36
PALESTINE      RAIN      44  44 100 N6        30.34S
JACKSONVILLE   DRZL/FOG  43  43  99 N6        30.33S VSB 1/2 WCI  40
HENDERSON      CLOUDY    43  43 100 NE7       30.34S WCI  39
NACOGDOCHES    CLOUDY    45  43  93 NE5       30.32S
LUFKIN         CLOUDY    47  43  86 NE7       30.31R
$$

SUPPLEMENTAL OBSERVATIONS (CENTRAL)

CITY           SKY/WX    TMP DP  RH WIND       PRES   REMARKS
$$

SUPPLEMENTAL OBSERVATIONS (WEST)

CITY           SKY/WX    TMP DP  RH WIND       PRES   REMARKS
$$

SUPPLEMENTAL OBSERVATIONS (EAST)

CITY           SKY/WX    TMP DP  RH WIND       PRES   REMARKS
$$

SUPPLEMENTAL OBSERVATIONS ARE A COLLECTION OF AUTOMATED INSTRUMENTS
THAT ARE MAINTAINED BY A VARIETY OF FEDERAL AND STATE AGENCIES.
CERTAIN ELEMENTS...SUCH AS HUMIDITY VALUES AND SUSTAINED WIND
SPEEDS...MAY BE APPROXIMATED.




USA.gov is the U.S. government's official web portal to all federal, state and local government web resources and services.